DELTA 1 DEB, 10208

Orbit data source: Space-Track

DELTA 1 DEB, 10208 is space debris in LEO originally from a launch on Thu, 14 Jul 1977 UTC launched from the Air Force Eastern Test Range (AFETR). Debris objects in space refer to the collection of defunct objects orbiting the Earth. Examples of debris include non-operational satellites, rocket bodies, and fragments generated from explosions, collisions, or faulty payload assembly.

Loading next visibility...
Identifier
10208, 1977-065AM
Orbit
LEO
Last TLE update
1 day ago
Origin
Manufacturer
Unknown
Mission
Spacecraft
Bus & Motor
Unknown
Mass
Unknown
Launch date (UTC)
1977-07-14 (48 years ago)
Launch vehicle
Unknown
Launch site
Air Force Eastern Test Range (AFETR)
Object type
Payload
Rocket body
Debris
Shape & HBR
Unknown
Radar Cross Section
Small (<0.1 m²)

Expand to show TLE details & history

TLE from 1 day ago
0 DELTA 1 DEB
1 10208U 77065AM  25127.84682326  .00005083  00000-0  65750-3 0  9994
2 10208  28.9368 308.0588 0350836 346.8291  12.3326 14.44177763386849
Epoch: 2025-05-07T20:19Z
Definitive object data (Epoch: 2025-05-07T20:19:25.529Z)
Latitude
-0.00005°
Longitude
137.27654°
Altitude
499.448 km
Speed
7.746 km/s
True Right ascension
20h 32m 14s
True Declination
0° 00' 00"
Sunlit
Object was in daylight at TLE epoch
Visualization TLE readout
Latitude
-27.67607°
Longitude
58.47634°
Altitude
669.042 km
Speed
7.567 km/s
Apparent Right ascension
18h 39m 15s
Apparent Declination
-67° 00' 57"
Sunlit
Object is in full shadow
Visualization observer readout
Local Sidereal Time
13:19:42
Azimuth
152.866° SSE
Elevation
-32.557°
Doppler factor
1
Orbital elements
Apogee altitude
998.791 km
Perigee altitude
498.717 km
Semi-major axis
7,126.891 km
Eccentricity
0.0350836
Inclination
28.9368°
RAAN
308.0588°
Arg. of periapsis
346.8291°
True anomaly
13.2296°
Mean anomaly
12.3326°
Eccentric anomaly
12.77716°
Mean motion
3.60739 °/min
BSTAR
0.0006575
Orbital period
99.8 mins
Loading maneuver chart data...
Loading SW <> Apogee altitude chart data...
Loading historical data...
Loading historical data...
Loading historical data...
Loading historical data...
Loading historical data...
Loading historical data...
Loading historical data...

DELTA 1 DEB Visibility forecast

Observer location: undefined°, undefined°

Span
Click to sort rows by Start time (UTC) header in descending order
Start Az.
Max El. time (UTC)
Max El. Az.
Max El.
End time (UTC)
End Az.
4 mins2025-05-09 15:43:04.797Z194.61° SSW2025-05-09 15:45:04.797Z167.073° S14.199°2025-05-09 15:47:04.797Z139.1° SSE
6 mins2025-05-09 17:28:04.797Z214.32° SW2025-05-09 17:30:04.797Z182.961° SSW21.437°2025-05-09 17:34:04.797Z129.043° SE
6 mins2025-05-09 19:13:04.797Z225.854° WSW2025-05-09 19:16:04.797Z185.078° SSW19.437°2025-05-09 19:19:04.797Z150.394° SSE
|